{"data":{"norad_id":64133,"intl_designator":"2025-111L","name":"STARLINK-11716 [DTC]","alt_names":[],"object_type":"PAYLOAD","status":"ACTIVE","operator":null,"country":"US","launch_date":"2025-05-24","launch_site_code":"AFETR","launch_vehicle":null,"mission":null,"orbit_class":"UNKNOWN","rcs_meters":null,"size_class":null,"mass_kg":null,"dimensions":null,"purposes":["comms"],"wikipedia_slug":null,"has_3d_model":false,"image_url":null,"decayed_at":null,"tle_current":{"epoch":"2026-05-24T23:20:02.373216Z","epoch_age_seconds":67634,"freshness":"FRESH","line1":"1 64133U 25111L   26144.97224969  .00270474  00000+0  20350-2 0  9997","line2":"2 64133  42.9995 234.2836 0001739 276.3577  83.7092 15.70939498 58683","mean_motion":15.70939498,"eccentricity":0.0001739,"inclination_deg":42.9995,"raan_deg":234.2836,"arg_perigee_deg":276.3577,"mean_anomaly_deg":83.7092,"bstar":0.002035,"rev_number":5868,"period_min":91.664892367484,"perigee_km":355.03958960948,"apogee_km":357.38179573699,"semimajor_km":6734.3476926732,"source":"CELESTRAK","updated_at":"2026-05-25T13:38:20.273369Z"}}}